Andover, NJ

6:58 AM EST on February 25, 2018 (GMT -0500)
Andover

Weather History for K12N - September, 2014

Change the Weather History Date:

Friday, September 5, 2014

  Actual Average (KFWN) Record (KFWN)
Temperature  
Mean Temperature 72 °F -  
Max Temperature 82 °F 77 °F 98 °F (1973)
Min Temperature 62 °F 53 °F 38 °F (1965)
Cooling Degree Days 7    
Growing Degree Days 22 (Base 50)    
Moisture  
Dew Point 68 °F    
Average Humidity 86    
Maximum Humidity 100    
Minimum Humidity 69    
Precipitation  
Precipitation 0.00 in - - ()
Sea Level Pressure  
Sea Level Pressure 30.11 in    
Wind  
Wind Speed 2 mph (SW)    
Max Wind Speed 8 mph    
Max Gust Speed -    
Averages and records for this station are not official NWS values.
T = Trace of Precipitation, MM = Missing Value Source: NWS Daily Summary

Daily Weather History Graph

Daily Weather History Graph

Search for Another Location

Airport or City:

Trip Planner

Search our weather history database for the weather conditions in past years. The results will help you decide how hot, cold, wet, or windy it might be!

Date:

Astronomy

Sep. 05, 2014 Rise Set
Actual Time 6:29 AM EDT 7:24 PM EDT
Civil Twilight 6:01 AM EDT 7:52 PM EDT
Nautical Twilight 5:28 AM EDT 8:26 PM EDT
Astronomical Twilight 4:53 AM EDT 9:00 PM EDT
Moon 4:53 PM EDT (9/5) 2:19 AM EDT (9/5)
Length of Visible Light 13h 51m
Length of Day
12h 55m
Waxing Gibbous, 83% of the Moon is Illuminated
Sep 5
Waxing Gibbous
Sep 8
Full
Sep 15
Last Quarter
Sep 24
New
Oct 1
First Quarter

Hourly Weather History & Observations

Time (EDT) Temp. Heat Index Dew Point Humidity Pressure Visibility Wind Dir Wind Speed Gust Speed Precip Events Conditions
12:54 AM 64.9 °F - 63.0 °F 93% 30.14 in - Calm Calm - N/A   Unknown
1:54 AM 64.0 °F - 62.1 °F 93% 30.15 in - Calm Calm - N/A   Unknown
2:54 AM 64.0 °F - 62.1 °F 93% 30.14 in - SSW 3.5 mph - N/A   Unknown
3:54 AM 63.0 °F - 61.0 °F 93% 30.15 in - Calm Calm - N/A   Unknown
4:54 AM 63.0 °F - 61.0 °F 93% 30.14 in - Calm Calm - N/A   Unknown
5:54 AM 62.1 °F - 61.0 °F 96% 30.15 in - Calm Calm - N/A   Unknown
6:54 AM 63.0 °F - 62.1 °F 97% 30.15 in - Calm Calm - N/A   Unknown
8:54 AM 71.1 °F - 66.9 °F 87% 30.16 in - Calm Calm - N/A   Unknown
9:54 AM 72.0 °F - 66.0 °F 81% 30.17 in - Calm Calm - N/A   Unknown
10:54 AM 77.0 °F - 70.0 °F 79% 30.16 in - Variable 3.5 mph - N/A   Unknown
11:54 AM 75.9 °F - 70.0 °F 82% 30.15 in - Variable 6.9 mph - N/A   Unknown
12:54 PM 78.1 °F - 70.0 °F 76% 30.13 in - SW 8.1 mph - N/A   Unknown
1:54 PM 78.1 °F - 71.1 °F 79% 30.12 in - SW 5.8 mph - N/A   Unknown
2:54 PM 79.0 °F - 70.0 °F 74% 30.11 in - Variable 4.6 mph - N/A   Unknown
3:54 PM 81.0 °F 84.9 °F 71.1 °F 72% 30.10 in - SW 5.8 mph - N/A   Unknown
4:54 PM 82.9 °F 88.0 °F 72.0 °F 69% 30.08 in - Variable 4.6 mph - N/A   Unknown
5:54 PM 82.0 °F 86.3 °F 71.1 °F 69% 30.05 in - SW 6.9 mph - N/A   Unknown
6:54 PM 79.0 °F - 72.0 °F 79% 30.05 in - SW 3.5 mph - N/A   Unknown
7:54 PM 73.9 °F - 72.0 °F 93% 30.04 in - Calm Calm - N/A   Unknown
8:54 PM 73.0 °F - 71.1 °F 93% 30.02 in - SW 4.6 mph - N/A   Unknown
9:54 PM 71.1 °F - 69.1 °F 93% 30.03 in - Calm Calm - N/A   Unknown
10:54 PM 70.0 °F - 69.1 °F 97% 30.02 in - Calm Calm - N/A   Unknown
11:54 PM 70.0 °F - 70.0 °F 100% 30.01 in - SSW 4.6 mph - N/A   Unknown